CUSAT 1 (39266 NORAD) Tracking and Keplerian Element Data

This shows tracking and keplerian element data for the satellite.

Feedback or suggestion? Click here.




ElementValue
Catalog39266
NameCUSAT 1
Epoch Orbit24914
Epoch Day202.77952173
Epoch Year2018
RAAN310.9194
Inclination80.9866
Eccentricity0.0648727
Argument of Perigee138.2117
Mean Anonmoly227.0539
Mean Motion14.32636837
Decay Rate6.515E-05
L11 39266U 13055B 18202.77952173 .00006515 00000-0 17762-3 0 9997
L22 39266 80.9866 310.9194 0648727 138.2117 227.0539 14.32636837249140

Live tracking and technical data element details for CUSAT 1 (NORAD 39266). CUSAT 1 can be tracked NOW for your location showing map with azimuth and elevation plus other details from your city location.

Track the satellite on the map from your city or location and see movement details for azimuth, elevation, latitude, longitude, range, height, and movement on the map or in text.







IsCatalogInMostPopularTable: catalog: 39266, numindb: 53
Update: records affected: 1



GetName: 39266 CUSAT 1

Hit Count: updated at: Mon, 23 Jul 2018 07:40:29 GMT